Weather in Ivankovo-Lenino

Russia / Chuvash Republic     54°43′02″N   46°41′17″E
temp.,
°C
wind,
m/s
gust,
m/s
humid.,
%
clouds,
%
prec.,
mm/h
press.,
hPa
HPBL,
m
17 september, fri
fri1700:00+7nw3766100 0.0 1016533
03:00+7nw3765100 0.0 1016469
06:00+6wnw3765100 0.0 1017503
09:00+7nw3561100 0.0 1017824
12:00+8nw3453100 0.1 10171315
15:00+9nw3449100 0.1 10171415
18:00+7nw225580 0.0 101722
21:00+5wnw22798 0.0 101833
18 september, sat
sat1800:00+2nw22795 0.0 101924
03:00+1wnw24775 0.0 102091
06:000nw27959 0.0 1021183
09:00+5nnw3576100 0.0 1022432
12:00+8nnw3462100 0.0 1022894
15:00+9nnw3553100 0.0 10221152
18:00+6nw126153 0.0 102313
21:00+3n01727 0.0 102410
19 september, sun
sun1900:00+2ne1178100 0.0 102510
03:00+1nne2283100 0.0 102522
06:000nne2190100 0.0 102624
09:00+6ne226174 0.0 1026545
12:00+10nne1143100 0.0 10261060
15:00+11ene113888 0.0 10241178
18:00+6e235595 0.0 102443
21:00+5e2455100 0.0 102584
20 september, mon
mon2000:00+5e2757100 0.0 1024199
03:00+6ese3958100 0.0 1023353
06:00+5e41076100 0.3 1023435
09:00+5e51180100 1.0 1023640
12:00+5e61389100 2.5 1023638
15:00+5e61491100 4.2 1022685
18:00+5e61393100 0.9 1022652
21:00+6ese61394100 1.8 1022646
21 september, tue
tue2100:00+6ese61393100 0.4 1021605
03:00+6e71490100 1.7 1019625
06:00+6e61593100 2.6 1019624
09:00+6ese71694100 5.5 1017724
12:00+7ese61393100 3.3 1016723
15:00+6ese61295100 6.3 1015603
18:00+7ese51096100 0.7 1015512
21:00+7ese3896100 1.0 1015379